TimeEDT,TemperatureF,Dew PointF,Humidity,Sea Level PressureIn,VisibilityMPH,Wind Direction,Wind SpeedMPH,Gust SpeedMPH,PrecipitationIn,Events,Conditions,WindDirDegrees,DateUTC
12:54 AM,46.9,25.0,42,30.37,10.0,NE,5.8,-,N/A,,Clear,40,2013-04-18 04:54:00
1:54 AM,46.0,25.0,44,30.36,10.0,NE,6.9,-,N/A,,Clear,40,2013-04-18 05:54:00
2:54 AM,45.0,25.0,46,30.35,10.0,NNE,6.9,-,N/A,,Clear,20,2013-04-18 06:54:00
3:54 AM,44.1,25.0,47,30.37,10.0,NE,6.9,-,N/A,,Clear,40,2013-04-18 07:54:00
4:54 AM,43.0,26.1,51,30.38,10.0,NNE,8.1,-,N/A,,Clear,30,2013-04-18 08:54:00
5:54 AM,41.0,27.0,57,30.38,10.0,NE,6.9,-,N/A,,Clear,40,2013-04-18 09:54:00
6:54 AM,42.1,28.9,60,30.40,10.0,NE,4.6,-,N/A,,Clear,50,2013-04-18 10:54:00
7:54 AM,44.1,30.0,58,30.41,10.0,ENE,8.1,-,N/A,,Clear,60,2013-04-18 11:54:00
8:54 AM,48.0,32.0,54,30.41,10.0,Variable,6.9,-,N/A,,Clear,0,2013-04-18 12:54:00
9:54 AM,51.1,30.9,46,30.39,10.0,SE,9.2,-,N/A,,Clear,130,2013-04-18 13:54:00
10:54 AM,54.0,28.9,38,30.39,10.0,Variable,6.9,17.3,N/A,,Mostly Cloudy,0,2013-04-18 14:54:00
11:54 AM,55.9,28.0,34,30.38,10.0,SSE,8.1,-,N/A,,Mostly Cloudy,160,2013-04-18 15:54:00
12:54 PM,57.9,30.0,35,30.34,10.0,South,10.4,20.7,N/A,,Overcast,190,2013-04-18 16:54:00
1:54 PM,57.9,30.0,35,30.31,10.0,South,13.8,-,N/A,,Overcast,180,2013-04-18 17:54:00
2:54 PM,59.0,30.0,33,30.30,10.0,South,15.0,-,N/A,,Overcast,180,2013-04-18 18:54:00
3:54 PM,57.9,28.0,32,30.28,10.0,SSW,17.3,25.3,N/A,,Overcast,210,2013-04-18 19:54:00
4:54 PM,55.9,27.0,33,30.27,10.0,SSW,17.3,-,N/A,,Overcast,200,2013-04-18 20:54:00
5:54 PM,54.0,25.0,33,30.27,10.0,SSW,13.8,23.0,N/A,,Overcast,210,2013-04-18 21:54:00
6:54 PM,53.1,25.0,34,30.25,10.0,South,12.7,20.7,N/A,,Overcast,170,2013-04-18 22:54:00
7:54 PM,52.0,27.0,38,30.24,10.0,SSW,11.5,-,N/A,,Overcast,210,2013-04-18 23:54:00
8:54 PM,50.0,37.9,63,30.22,10.0,South,13.8,-,N/A,,Mostly Cloudy,190,2013-04-19 00:54:00
9:44 PM,48.9,39.9,71,30.19,10.0,South,10.4,-,N/A,,Mostly Cloudy,190,2013-04-19 01:44:00
9:54 PM,48.9,39.9,71,30.20,10.0,South,10.4,-,N/A,,Overcast,180,2013-04-19 01:54:00
10:51 PM,48.2,42.8,82,30.16,10.0,South,15.0,-,N/A,,Overcast,190,2013-04-19 02:51:00
10:54 PM,48.9,42.1,77,30.17,10.0,South,16.1,23.0,N/A,,Overcast,190,2013-04-19 02:54:00
11:54 PM,48.9,44.1,83,30.14,10.0,South,13.8,21.9,N/A,,Overcast,190,2013-04-19 03:54:00